User: anonymous   Login
Location: Brno
(49.2000°N, 16.6330°E)
Time: 01:29:45
(UTC+01:00)
Language:

CARTOSAT-1 - Orbit

View from above orbital plane
View from above orbital plane
View from above satellite
View from above satellite

Ground track
Ground track

The orbit data is extracted from the following two-line orbital elements,

1 28649U 05017A   14352.81096945 -.00001039  00000-0 -12014-3 0  9052
2 28649 097.8183 063.1239 0002230 086.7898 273.3645 14.83467165520860
Epoch (UTC): 18 December 2014 19:27:47
Eccentricity: 0.0002230
inclination: 97.8183°
perigee height: 617 km
apogee height: 620 km
right ascension of ascending node: 63.1239°
argument of perigee: 86.7898°
revolutions per day: 14.83467165
mean anomaly at epoch: 273.3645°
orbit number at epoch: 52086

The dashed part of the orbit path shows where the satellite is in the earth's shadow,  

DLR